When you browse on this site, cookies collect data to enhance your experience and personalize the content and advertising you see.
Visit our Privacy Policy to learn more. By continuing to use the site, you agree to this use of cookies and data.
  • In Sweden
  • List of Countries
  • For 7 days
  • Water Temperature
  • Weather Map
  • Weather Widgets
  • user-avatar
    Login

    Hourly Weather Staraya Nyavka

    Today, 19 October, Saturday

    Time Temperature Precipitation Wind Pressure Humidity
    00:00 +12°C° 0 mm 1 mps 747 mmHg 87%
    01:00 +10°C° 0 mm 2 mps 747 mmHg 89%
    02:00 +10°C° 0 mm 2 mps 747 mmHg 91%
    03:00 +9°C° 0 mm 2 mps 747 mmHg 92%
    04:00 +9°C° 0 mm 2 mps 748 mmHg 93%
    05:00 +8°C° 0 mm 2 mps 748 mmHg 93%
    06:00 +8°C° 0 mm 2 mps 748 mmHg 94%
    07:00 +10°C° 0 mm 1 mps 749 mmHg 91%
    08:00 +10°C° 0 mm 1 mps 749 mmHg 88%
    09:00 +11°C° 0 mm 1 mps 749 mmHg 86%
    10:00 +12°C° 0 mm 1 mps 750 mmHg 82%
    11:00 +13°C° 0 mm 1 mps 750 mmHg 77%
    12:00 +13°C° 0 mm 2 mps 750 mmHg 72%
    13:00 +14°C° 0 mm 1 mps 750 mmHg 71%
    14:00 +14°C° 0 mm 1 mps 750 mmHg 71%
    15:00 +14°C° 0 mm 1 mps 750 mmHg 72%
    16:00 +13°C° 0 mm 1 mps 750 mmHg 76%
    17:00 +12°C° 0 mm 1 mps 750 mmHg 81%
    18:00 +10°C° 0 mm 2 mps 751 mmHg 85%
    19:00 +10°C° 0 mm 2 mps 751 mmHg 86%
    20:00 +9°C° 0 mm 2 mps 751 mmHg 87%
    21:00 +9°C° 0 mm 2 mps 751 mmHg 88%
    22:00 +8°C° 0 mm 2 mps 751 mmHg 88%
    23:00 +8°C° 0 mm 2 mps 751 mmHg 89%

    Tomorrow, 20 October, Sunday

    Time Temperature Precipitation Wind Pressure Humidity
    00:00 +8°C° 0 mm 2 mps 751 mmHg 90%
    01:00 +8°C° 0 mm 2 mps 752 mmHg 91%
    02:00 +8°C° 0 mm 2 mps 752 mmHg 92%
    03:00 +7°C° 0 mm 2 mps 752 mmHg 93%
    04:00 +7°C° 0 mm 2 mps 752 mmHg 94%
    05:00 +7°C° 0 mm 2 mps 752 mmHg 94%
    06:00 +7°C° 0 mm 2 mps 752 mmHg 95%
    07:00 +8°C° 0 mm 3 mps 752 mmHg 93%
    08:00 +9°C° 0 mm 3 mps 752 mmHg 91%
    09:00 +10°C° 0 mm 3 mps 752 mmHg 88%
    10:00 +11°C° 0 mm 3 mps 752 mmHg 83%
    11:00 +12°C° 0 mm 3 mps 752 mmHg 78%
    12:00 +14°C° 0 mm 3 mps 752 mmHg 73%
    13:00 +14°C° 0 mm 3 mps 752 mmHg 73%
    14:00 +14°C° 0 mm 3 mps 752 mmHg 72%
    15:00 +14°C° 0 mm 3 mps 752 mmHg 71%
    16:00 +13°C° 0 mm 3 mps 752 mmHg 75%
    17:00 +12°C° 0 mm 3 mps 752 mmHg 80%
    18:00 +12°C° 0 mm 2 mps 752 mmHg 84%
    19:00 +11°C° 0 mm 3 mps 752 mmHg 85%
    20:00 +11°C° 0 mm 3 mps 752 mmHg 86%
    21:00 +10°C° 0 mm 3 mps 752 mmHg 87%
    22:00 +10°C° 0 mm 3 mps 752 mmHg 88%
    23:00 +10°C° 0 mm 3 mps 752 mmHg 89%

    Day after tomorrow, 21 October, Monday

    Time Temperature Precipitation Wind Pressure Humidity
    00:00 +10°C° 0 mm 3 mps 752 mmHg 90%
    01:00 +9°C° 0 mm 3 mps 752 mmHg 91%
    02:00 +9°C° 0 mm 3 mps 752 mmHg 91%
    03:00 +9°C° 0 mm 3 mps 752 mmHg 92%
    04:00 +9°C° 0 mm 3 mps 752 mmHg 92%
    05:00 +9°C° 0 mm 3 mps 751 mmHg 92%
    06:00 +9°C° 0 mm 3 mps 751 mmHg 92%
    07:00 +8°C° 0 mm 4 mps 751 mmHg 89%
    08:00 +10°C° 0 mm 4 mps 751 mmHg 85%
    09:00 +10°C° 0 mm 5 mps 751 mmHg 82%
    10:00 +13°C° 0 mm 5 mps 751 mmHg 77%
    11:00 +14°C° 0 mm 6 mps 751 mmHg 72%
    12:00 +15°C° 0 mm 6 mps 750 mmHg 67%
    13:00 +15°C° 0 mm 6 mps 750 mmHg 66%
    14:00 +16°C° 0 mm 6 mps 750 mmHg 65%
    15:00 +16°C° 0 mm 6 mps 749 mmHg 64%
    16:00 +15°C° 0 mm 6 mps 749 mmHg 68%
    17:00 +14°C° 0 mm 5 mps 749 mmHg 71%
    18:00 +13°C° 0 mm 5 mps 749 mmHg 75%
    19:00 +13°C° 0 mm 5 mps 749 mmHg 76%
    20:00 +13°C° 0 mm 5 mps 748 mmHg 76%
    21:00 +12°C° 0 mm 5 mps 748 mmHg 77%
    22:00 +12°C° 0 mm 5 mps 748 mmHg 77%
    23:00 +12°C° 0 mm 5 mps 748 mmHg 78%

    22 October, Tuesday

    Time Temperature Precipitation Wind Pressure Humidity
    00:00 +12°C° 0 mm 4 mps 747 mmHg 78%
    01:00 +12°C° 0 mm 5 mps 747 mmHg 80%
    02:00 +10°C° 0 mm 5 mps 747 mmHg 81%
    03:00 +10°C° 0 mm 5 mps 746 mmHg 83%
    04:00 +10°C° 0 mm 5 mps 746 mmHg 83%
    05:00 +10°C° 0 mm 5 mps 746 mmHg 84%
    06:00 +10°C° 0 mm 6 mps 746 mmHg 84%
    07:00 +10°C° 0.1 mm 5 mps 746 mmHg 85%
    08:00 +10°C° 0.1 mm 5 mps 746 mmHg 86%
    09:00 +12°C° 0.1 mm 5 mps 746 mmHg 87%
    10:00 +12°C° 0 mm 5 mps 747 mmHg 81%
    11:00 +13°C° 0 mm 5 mps 747 mmHg 75%
    12:00 +13°C° 0 mm 5 mps 747 mmHg 68%
    13:00 +13°C° 0 mm 4 mps 748 mmHg 69%
    14:00 +13°C° 0 mm 3 mps 748 mmHg 69%
    15:00 +14°C° 0 mm 2 mps 748 mmHg 69%
    16:00 +14°C° 0 mm 2 mps 748 mmHg 70%
    17:00 +13°C° 0 mm 2 mps 749 mmHg 72%
    18:00 +13°C° 0 mm 2 mps 749 mmHg 73%
    19:00 +12°C° 0 mm 2 mps 749 mmHg 74%
    20:00 +12°C° 0 mm 2 mps 749 mmHg 75%
    21:00 +10°C° 0 mm 2 mps 749 mmHg 76%
    22:00 +10°C° 0 mm 2 mps 749 mmHg 78%
    23:00 +10°C° 0 mm 1 mps 749 mmHg 81%

    23 October, Wednesday

    Time Temperature Precipitation Wind Pressure Humidity
    00:00 +9°C° 0 mm 1 mps 749 mmHg 83%
    01:00 +8°C° 0 mm 1 mps 749 mmHg 84%
    02:00 +8°C° 0 mm 1 mps 749 mmHg 85%
    03:00 +8°C° 0 mm 1 mps 749 mmHg 86%
    04:00 +7°C° 0 mm 1 mps 749 mmHg 88%
    05:00 +7°C° 0 mm 1 mps 749 mmHg 90%
    06:00 +6°C° 0 mm 2 mps 749 mmHg 91%
    07:00 +7°C° 0 mm 2 mps 749 mmHg 88%
    08:00 +7°C° 0 mm 2 mps 749 mmHg 86%
    09:00 +8°C° 0 mm 2 mps 749 mmHg 83%
    10:00 +9°C° 0 mm 3 mps 749 mmHg 80%
    11:00 +10°C° 0 mm 3 mps 748 mmHg 76%
    12:00 +11°C° 0 mm 4 mps 748 mmHg 72%
    13:00 +12°C° 0 mm 4 mps 748 mmHg 73%
    14:00 +12°C° 0 mm 4 mps 748 mmHg 74%
    15:00 +12°C° 0 mm 4 mps 748 mmHg 75%
    16:00 +11°C° 0 mm 4 mps 747 mmHg 78%
    17:00 +11°C° 0 mm 4 mps 747 mmHg 80%
    18:00 +11°C° 0 mm 4 mps 747 mmHg 83%
    19:00 +11°C° 0 mm 4 mps 747 mmHg 85%
    20:00 +11°C° 0 mm 4 mps 747 mmHg 87%
    21:00 +11°C° 0 mm 4 mps 747 mmHg 89%
    22:00 +10°C° 0 mm 4 mps 746 mmHg 90%
    23:00 +10°C° 0 mm 4 mps 746 mmHg 91%

    24 October, Thursday

    Time Temperature Precipitation Wind Pressure Humidity
    00:00 +10°C° 0 mm 4 mps 746 mmHg 92%
    01:00 +10°C° 0 mm 4 mps 746 mmHg 92%
    02:00 +10°C° 0 mm 4 mps 746 mmHg 93%
    03:00 +10°C° 0 mm 4 mps 745 mmHg 93%
    04:00 +10°C° 0 mm 4 mps 745 mmHg 94%
    05:00 +9°C° 0 mm 3 mps 745 mmHg 94%
    06:00 +9°C° 0 mm 3 mps 745 mmHg 95%
    07:00 +10°C° 0 mm 3 mps 745 mmHg 92%
    08:00 +10°C° 0 mm 3 mps 745 mmHg 90%
    09:00 +11°C° 0 mm 3 mps 745 mmHg 87%
    10:00 +12°C° 0 mm 3 mps 745 mmHg 84%
    11:00 +14°C° 0 mm 2 mps 745 mmHg 80%
    12:00 +15°C° 0 mm 2 mps 745 mmHg 77%
    13:00 +15°C° 0 mm 2 mps 745 mmHg 78%
    14:00 +15°C° 0 mm 2 mps 745 mmHg 79%
    15:00 +14°C° 0 mm 2 mps 745 mmHg 80%
    16:00 +14°C° 0 mm 1 mps 745 mmHg 83%
    17:00 +13°C° 0 mm 1 mps 745 mmHg 86%
    18:00 +13°C° 0 mm 1 mps 745 mmHg 89%
    19:00 +13°C° 0 mm 1 mps 746 mmHg 90%
    20:00 +12°C° 0 mm 1 mps 746 mmHg 92%
    21:00 +12°C° 0 mm 1 mps 746 mmHg 93%
    22:00 +12°C° 0 mm 1 mps 746 mmHg 93%
    23:00 +12°C° 0 mm 2 mps 746 mmHg 93%
    Show more